Temp
75 76 76 76 74 73 72 72 71 71 72 71 70 71 71 72 73 73 76 77 76 77 74 72 75 75 75 75 77 77 76 75 74 76 75 74 75 75 75 77 77 77 77
70 73 74 74 74 72 72 71 71 70 72 72 71 72 72 73 74 75 76 77 77 77 76 74 75 76 76 76 76 76 75 75 73 73 72 70 73 75 76 75 76 75 76
70 72 72 73 73 72 71 71 70 71 72 73 72 72 73 73 73 73 73 76 78 78 77 75 74 75 75 75 76 77 75 74 73 72 73 70 70 70 72 75 75 74 74
73 72 73 72 73 73 73 71 71 71 72 72 72 72 71 70 71 72 73 75 77 78 78 77 76 76 75 76 76 78 76 75 74 74 73 71 71 69 70 74 72 72 73
73 72 73 75 75 75 73 72 71 70 72 72 72 72 71 71 72 72 73 74 75 77 79 77 77 76 75 76 77 77 77 76 73 73 72 71 69 68 68 69 69 71 72
71 73 75 76 75 75 74 73 70 70 71 72 72 71 71 71 71 71 71 71 72 75 77 78 76 75 76 77 77 76 77 76 76 73 72 72 71 70 68 67 69 68 72
71 71 72 74 73 72 73 73 70 70 71 71 72 72 72 71 72 72 71 71 71 72 74 76 75 75 76 77 77 76 76 76 76 75 75 72 72 71 69 69 69 69 72
72 72 73 73 73 73 74 74 71 71 70 71 71 72 72 71 71 72 71 71 71 73 75 75 76 76 77 77 76 76 77 76 76 76 75 73 72 72 71 71 71 70 69
72 73 74 74 74 74 73 74 72 72 71 72 71 71 71 71 71 72 72 73 72 73 74 75 75 76 77 77 75 75 75 75 75 75 75 74 74 73 72 73 71 72 71
72 73 74 74 74 77 77 74 73 73 73 71 72 73 72 72 72 73 71 71 72 72 73 73 75 75 75 77 76 75 76 75 75 76 75 75 76 75 74 74 72 71 73
71 72 73 74 75 76 76 74 72 72 72 72 72 72 72 72 73 72 72 72 72 71 71 72 73 73 74 76 75 75 75 75 75 76 75 75 76 76 76 76 74 74 72
70 72 72 72 71 72 76 74 72 72 73 73 72 72 72 72 72 72 72 72 71 70 71 71 72 73 74 75 74 75 77 75 75 75 75 75 77 75 75 76 75 75 74
69 70 70 70 70 71 72 73 72 73 72 72 72 72 72 72 72 72 73 72 71 71 70 70 72 73 73 74 73 73 75 75 75 75 76 76 75 74 75 75 75 75 74
70 68 68 68 69 71 70 71 72 73 72 72 72 72 72 73 73 73 73 73 72 72 70 71 72 72 73 74 74 73 74 75 75 75 76 76 75 74 74 74 74 75 74
66 67 66 68 69 69 68 70 72 72 72 72 72 72 73 73 73 72 72 72 71 72 72 71 73 72 72 70 70 72 73 73 75 75 75 75 74 70 71 74 74 73 72
63 66 67 67 68 68 69 70 71 70 72 72 72 72 71 72 72 72 72 72 72 71 71 72 72 70 68 63 65 67 70 72 73 73 73 72 71 70 67 68 67 73 73
61 63 65 65 66 66 67 66 67 69 69 69 69 70 71 71 71 72 71 71 71 70 71 69 67 65 66 62 63 65 68 70 71 72 70 71 71 70 70 66 66 65 64
58 59 60 62 65 66 66 67 67 67 68 68 69 69 69 69 69 70 70 70 70 68 68 67 65 64 63 60 60 63 67 68 68 69 69 68 68 68 70 70 69 68 68
57 57 59 60 61 62 65 67 67 67 67 67 68 68 69 68 68 68 68 69 69 69 68 66 64 63 62 59 59 64 65 63 64 65 66 67 67 62 62 67 67 66 66
57 57 58 59 59 60 63 66 66 67 67 67 68 68 69 68 68 68 68 67 68 67 65 62 62 61 61 57 57 62 64 62 61 61 61 62 63 59 60 64 64 65 65
57 58 58 57 57 60 63 64 64 63 65 67 68 68 68 68 68 67 66 65 63 61 60 58 58 56 56 58 57 59 62 61 59 60 62 61 57 55 56 58 65 64 64
56 56 57 56 57 59 60 59 59 60 63 63 63 65 67 67 66 65 62 61 61 58 57 58 57 59 60 55 57 58 59 60 61 59 61 59 53 52 54 57 55 56 60
54 56 56 57 57 57 58 57 58 59 58 59 58 57 57 58 61 63 61 59 58 56 55 56 58 58 60 59 54 55 56 59 61 62 57 53 51 53 55 55 56 58 60
54 56 55 56 55 57 58 57 58 58 57 56 55 55 56 55 55 54 55 56 59 59 58 56 55 56 53 55 59 59 59 56 59 58 58 56 55 55 56 58 57 57 57
54 56 55 54 54 56 56 58 59 59 57 55 55 54 54 52 50 48 49 50 46 49 54 55 57 55 56 53 48 52 56 56 53 56 57 57 58 57 57 57 57 57 57
54 54 53 55 55 54 53 54 57 59 58 58 56 54 52 52 51 51 48 48 47 47 44 45 50 48 47 45 44 43 44 46 47 57 56 55 56 57 56 56 55 55 54
MSLP
1015.34 1015.81 1016.33 1016.88 1017.30 1017.75 1018.10 1018.34 1018.74 1019.08 1019.26 1019.57 1019.90 1020.11 1020.29 1020.39 1020.53 1020.52 1020.39 1020.43 1020.46 1020.46 1020.49 1020.68 1020.62 1020.54 1020.38 1020.46 1020.17 1020.24 1020.42 1020.56 1020.52 1020.68 1021.17 1021.41 1021.26 1021.12 1021.07 1020.89 1020.66 1020.49 1020.22
1015.76 1015.97 1016.32 1016.82 1017.22 1017.69 1018.12 1018.53 1018.79 1019.05 1019.04 1019.07 1019.49 1019.74 1019.98 1020.14 1020.18 1020.17 1020.28 1020.33 1020.53 1020.57 1020.52 1020.51 1020.54 1020.50 1020.51 1020.49 1020.36 1020.43 1020.65 1020.87 1020.84 1020.94 1021.32 1021.74 1021.73 1021.33 1021.30 1021.04 1021.00 1020.78 1020.66
1015.42 1015.81 1016.23 1016.48 1017.01 1017.46 1017.86 1018.42 1018.68 1018.88 1019.02 1019.12 1019.50 1019.83 1019.85 1020.03 1020.24 1020.27 1020.43 1020.33 1020.28 1020.46 1020.55 1020.57 1020.69 1020.54 1020.53 1020.68 1020.45 1020.42 1020.57 1020.90 1021.08 1021.02 1021.11 1021.84 1021.90 1021.85 1021.43 1021.19 1021.21 1020.97 1020.67
1014.95 1015.24 1015.77 1016.24 1016.59 1017.07 1017.59 1018.15 1018.54 1018.86 1018.93 1019.12 1019.32 1019.53 1019.74 1020.03 1020.02 1020.04 1020.07 1020.07 1020.08 1020.19 1020.35 1020.53 1020.60 1020.52 1020.62 1020.69 1020.51 1020.35 1020.54 1020.76 1021.14 1021.28 1021.30 1021.36 1021.55 1021.96 1021.83 1021.38 1021.40 1020.82 1020.54
1014.42 1014.79 1015.24 1015.36 1015.88 1016.68 1017.10 1017.80 1018.35 1018.66 1018.85 1018.93 1019.08 1019.46 1019.90 1019.99 1019.98 1020.11 1020.14 1020.16 1020.17 1020.14 1020.10 1020.28 1020.52 1020.61 1020.62 1020.62 1020.64 1020.50 1020.50 1020.66 1021.01 1021.11 1021.41 1021.64 1021.81 1021.96 1022.20 1022.07 1021.59 1021.17 1020.52
1014.00 1014.24 1014.41 1015.09 1015.83 1016.55 1017.01 1017.55 1018.23 1018.48 1018.66 1018.87 1019.08 1019.33 1019.73 1020.03 1020.34 1020.45 1020.46 1020.36 1020.22 1020.11 1020.03 1020.09 1020.40 1020.61 1020.62 1020.70 1020.67 1020.64 1020.75 1020.73 1020.83 1021.09 1021.30 1021.40 1021.58 1021.86 1022.09 1022.25 1021.92 1021.69 1020.72
1013.44 1014.10 1014.59 1015.08 1015.73 1016.22 1016.74 1017.37 1017.83 1018.26 1018.57 1018.86 1018.96 1019.09 1019.35 1019.77 1020.09 1020.23 1020.45 1020.65 1020.45 1020.20 1020.04 1019.94 1020.19 1020.40 1020.48 1020.53 1020.52 1020.61 1020.74 1020.90 1020.93 1021.01 1021.23 1021.42 1021.47 1021.62 1021.80 1021.91 1021.90 1021.76 1020.95
1012.70 1013.26 1013.70 1014.30 1014.99 1015.62 1016.25 1016.88 1017.46 1017.89 1018.35 1018.80 1018.90 1018.84 1019.05 1019.34 1019.67 1019.86 1020.02 1020.17 1020.29 1020.22 1019.97 1020.03 1019.92 1019.98 1020.21 1020.38 1020.53 1020.57 1020.62 1020.70 1020.92 1020.96 1021.06 1021.32 1021.38 1021.45 1021.56 1021.56 1021.60 1021.63 1021.42
1011.56 1012.23 1013.13 1013.88 1014.49 1015.19 1015.75 1016.22 1016.82 1017.44 1017.96 1018.40 1018.85 1018.90 1019.06 1019.37 1019.54 1019.68 1019.92 1019.92 1019.93 1020.05 1020.07 1020.08 1019.99 1019.88 1019.98 1020.12 1020.43 1020.69 1020.65 1020.74 1020.84 1020.91 1020.91 1021.10 1021.32 1021.40 1021.38 1021.40 1021.38 1021.38 1021.46
1011.34 1012.24 1012.75 1013.36 1013.99 1014.46 1015.06 1015.76 1016.30 1016.66 1017.13 1017.87 1018.34 1018.64 1018.85 1019.06 1019.19 1019.44 1019.63 1019.77 1019.86 1019.95 1019.86 1020.02 1020.05 1020.05 1020.03 1020.05 1020.18 1020.45 1020.44 1020.64 1020.80 1020.79 1020.80 1020.85 1020.90 1021.02 1021.12 1021.22 1021.28 1021.30 1021.28
1011.02 1011.67 1012.31 1013.00 1013.32 1014.06 1014.68 1015.22 1015.96 1016.45 1016.88 1017.34 1017.73 1018.23 1018.56 1018.85 1019.12 1019.16 1019.22 1019.42 1019.61 1019.72 1019.85 1019.97 1020.09 1020.32 1020.20 1019.94 1020.05 1020.23 1020.34 1020.48 1020.56 1020.58 1020.66 1020.61 1020.67 1020.82 1020.94 1021.06 1021.06 1021.08 1021.14
1011.11 1011.44 1011.92 1012.82 1013.33 1013.65 1014.27 1014.62 1015.34 1015.86 1016.15 1016.55 1017.14 1017.59 1017.98 1018.35 1018.63 1018.81 1018.96 1019.14 1019.34 1019.44 1019.44 1019.75 1019.94 1019.90 1020.09 1020.01 1019.86 1019.91 1020.04 1020.22 1020.38 1020.45 1020.54 1020.46 1020.54 1020.67 1020.79 1020.86 1020.87 1020.78 1020.80
1011.37 1011.84 1012.52 1012.94 1013.38 1013.60 1013.82 1014.22 1014.59 1015.13 1015.62 1016.06 1016.50 1016.98 1017.46 1017.84 1018.08 1018.38 1018.62 1018.92 1019.16 1019.30 1019.32 1019.40 1019.73 1019.82 1019.78 1020.00 1020.06 1019.86 1019.89 1019.88 1019.90 1019.94 1020.05 1020.14 1020.37 1020.50 1020.62 1020.70 1020.69 1020.70 1020.70
1011.39 1011.97 1012.58 1013.08 1013.51 1013.64 1013.80 1014.07 1014.23 1014.38 1015.02 1015.46 1015.96 1016.32 1016.67 1017.04 1017.47 1017.75 1018.03 1018.40 1018.71 1018.99 1019.16 1019.40 1019.46 1019.64 1019.70 1019.82 1019.86 1019.72 1019.67 1019.68 1019.66 1019.62 1019.82 1019.79 1019.81 1019.91 1020.20 1020.31 1020.41 1020.54 1020.57
1012.07 1011.91 1012.52 1012.99 1013.38 1013.66 1013.98 1014.24 1014.31 1014.46 1014.74 1015.12 1015.46 1015.65 1015.90 1016.35 1016.84 1017.34 1017.68 1017.84 1018.28 1018.59 1018.99 1019.28 1019.50 1019.58 1019.65 1019.66 1019.86 1019.80 1019.65 1019.58 1019.54 1019.35 1019.52 1019.52 1019.58 1019.72 1019.82 1019.91 1019.96 1020.18 1020.26
1013.44 1013.16 1012.92 1012.97 1013.52 1013.82 1014.03 1014.14 1014.32 1014.41 1014.89 1015.29 1015.32 1015.39 1015.74 1015.93 1016.27 1016.66 1017.17 1017.60 1017.89 1018.21 1018.57 1018.88 1019.20 1019.50 1019.71 1019.88 1019.72 1019.94 1019.86 1019.64 1019.48 1019.50 1019.58 1019.49 1019.53 1019.56 1019.61 1019.70 1019.84 1019.67 1019.80
1014.90 1014.46 1014.36 1013.96 1014.00 1013.70 1014.10 1014.32 1014.47 1014.46 1014.76 1015.24 1015.48 1015.49 1015.52 1015.90 1015.98 1016.11 1016.45 1017.09 1017.51 1017.85 1018.23 1018.51 1019.16 1019.59 1019.70 1019.85 1020.07 1019.93 1019.71 1019.72 1019.53 1019.50 1019.50 1019.70 1019.70 1019.75 1019.81 1019.79 1019.82 1019.97 1020.02
1016.03 1015.68 1015.49 1014.92 1014.61 1014.44 1013.96 1014.10 1014.28 1014.35 1014.80 1015.36 1015.37 1015.58 1015.80 1015.64 1015.92 1016.08 1016.43 1016.83 1017.13 1017.84 1018.23 1018.53 1018.81 1019.39 1019.54 1019.88 1019.94 1020.01 1019.79 1019.74 1019.58 1019.55 1019.65 1019.74 1019.83 1019.97 1020.16 1020.18 1020.21 1020.38 1020.34
1016.76 1016.51 1016.11 1015.97 1015.70 1015.04 1014.35 1014.02 1014.54 1014.26 1014.42 1014.95 1015.22 1015.31 1015.31 1015.30 1015.49 1016.13 1016.19 1016.63 1016.99 1017.53 1018.05 1018.34 1018.80 1019.01 1019.46 1019.20 1019.17 1019.92 1019.82 1019.86 1020.02 1019.88 1019.82 1019.93 1019.99 1020.17 1020.45 1020.88 1020.64 1020.83 1020.89
1017.24 1016.91 1016.63 1016.39 1015.98 1015.31 1014.36 1013.94 1014.67 1014.36 1014.40 1014.45 1014.89 1015.18 1015.13 1015.08 1015.37 1015.95 1016.17 1016.46 1016.92 1017.40 1017.85 1018.55 1018.79 1019.37 1019.29 1019.28 1019.25 1019.82 1019.82 1020.29 1020.52 1020.55 1020.43 1020.40 1020.18 1020.21 1020.40 1020.73 1020.87 1020.92 1021.17
1017.22 1016.93 1016.65 1016.41 1015.69 1015.20 1014.39 1014.78 1015.06 1015.05 1014.95 1014.45 1014.60 1014.86 1015.14 1015.00 1015.25 1015.90 1016.18 1016.42 1016.89 1017.60 1018.19 1018.68 1019.27 1019.60 1019.30 1018.95 1019.16 1019.62 1019.78 1020.07 1020.51 1020.90 1020.94 1020.92 1020.72 1020.44 1020.52 1020.90 1021.14 1021.20 1021.28
1017.56 1017.19 1016.88 1016.69 1016.37 1016.05 1015.75 1015.67 1015.78 1015.80 1015.55 1015.14 1015.33 1015.66 1015.56 1015.28 1015.55 1016.12 1016.67 1017.09 1017.53 1018.08 1019.19 1019.80 1019.81 1019.81 1019.98 1019.72 1019.31 1019.53 1019.92 1020.02 1020.48 1020.80 1021.02 1021.31 1021.22 1021.24 1021.16 1021.08 1021.24 1021.36 1021.54
1018.27 1018.10 1017.77 1017.55 1017.37 1016.85 1016.63 1016.51 1016.46 1016.24 1016.10 1016.03 1016.24 1016.40 1016.47 1016.32 1016.42 1016.66 1016.29 1017.49 1018.45 1018.84 1019.63 1020.13 1020.05 1020.28 1020.34 1020.20 1020.15 1019.96 1020.24 1020.36 1020.58 1020.70 1021.28 1021.44 1021.56 1021.41 1021.52 1021.56 1021.64 1021.68 1021.84
1018.90 1018.71 1018.58 1018.48 1018.57 1018.17 1017.83 1017.73 1017.47 1017.17 1017.13 1017.22 1017.58 1017.70 1017.66 1017.62 1017.89 1017.83 1017.92 1018.44 1019.17 1019.68 1020.16 1020.36 1020.78 1021.06 1021.12 1020.92 1021.07 1021.21 1021.05 1020.99 1021.01 1021.07 1021.24 1021.58 1021.68 1021.96 1022.22 1022.41 1022.50 1022.40 1022.41
1019.27 1019.19 1019.30 1019.42 1019.57 1019.18 1018.85 1018.61 1018.17 1018.08 1018.15 1018.24 1018.53 1018.57 1018.85 1018.88 1019.18 1019.75 1019.82 1019.95 1020.77 1020.88 1020.63 1020.94 1021.10 1021.42 1021.54 1021.78 1021.96 1021.87 1021.77 1021.86 1022.02 1021.84 1021.83 1021.86 1022.24 1022.52 1022.53 1022.87 1023.03 1023.10 1023.14
1019.68 1019.83 1019.93 1019.68 1019.60 1019.32 1019.43 1019.45 1019.15 1018.66 1018.55 1018.74 1018.86 1019.16 1019.32 1019.70 1020.01 1020.30 1021.14 1021.39 1021.29 1021.59 1021.50 1021.35 1021.74 1022.12 1022.43 1022.34 1022.12 1022.32 1022.69 1022.39 1022.35 1022.30 1022.61 1022.56 1022.63 1022.79 1023.22 1023.39 1023.67 1023.73 1024.01
Wind_Speed
12 10 9 8 7 6 7 6 7 6 5 3 3 2 2 2 3 3 4 3 3 4 3 3 1 1 3 2 2 2 4 4 3 3 2 4 4 4 4 3 3 3 4
7 8 11 8 8 7 7 6 7 7 5 4 3 3 2 1 1 1 1 2 1 2 3 4 3 1 2 3 4 3 1 2 4 2 2 2 3 2 3 3 4 4 4
14 12 12 12 8 9 9 8 7 7 5 5 4 3 3 2 1 0 2 2 2 1 1 4 4 2 2 2 2 2 3 2 4 5 3 2 2 2 1 1 2 5 3
14 13 13 11 11 10 7 7 7 7 6 6 4 5 4 3 3 3 2 2 3 3 3 2 1 3 1 2 1 1 2 2 2 1 4 3 2 2 3 1 2 4 6
15 15 16 16 13 10 9 7 7 7 6 7 6 5 3 2 1 1 3 2 1 2 3 4 3 2 1 0 0 2 2 2 2 1 1 2 3 2 2 3 4 2 4
12 14 15 12 11 7 8 8 8 7 6 6 7 8 7 6 3 3 2 2 2 1 2 4 4 3 2 2 1 0 1 1 2 2 2 2 2 2 2 2 2 3 3
14 12 13 13 11 11 11 9 9 8 6 6 7 8 8 7 6 5 4 4 3 3 4 3 4 3 4 3 2 2 1 1 1 1 1 1 1 2 2 1 1 2 2
15 17 18 15 15 14 13 12 11 10 8 6 7 6 7 5 4 5 4 4 3 2 3 3 3 4 4 3 2 1 2 2 2 2 2 2 2 2 2 2 2 1 2
20 21 17 15 15 14 14 14 12 10 9 9 5 6 6 6 6 6 3 3 4 3 3 3 4 4 4 4 4 3 3 3 2 3 3 2 2 3 2 2 2 2 1
16 15 15 15 14 14 14 12 11 14 12 10 8 6 6 6 6 4 6 5 4 4 4 4 4 4 4 4 4 3 3 4 3 3 2 2 2 2 3 2 2 1 2
16 16 15 14 15 11 12 12 9 10 10 10 10 8 7 5 5 5 5 5 4 4 4 5 4 5 5 5 5 5 4 4 3 3 4 4 2 2 2 2 2 2 3
14 15 14 12 12 12 12 13 11 11 12 11 9 10 7 6 6 5 5 5 5 5 5 5 4 5 5 4 5 5 4 6 5 5 5 5 3 3 3 2 3 2 2
7 7 7 9 11 11 12 12 12 13 10 10 10 9 9 8 9 7 6 5 5 6 4 5 5 5 5 4 5 5 4 5 5 4 5 5 5 4 4 4 3 2 2
9 6 7 6 7 9 11 10 11 12 11 11 11 12 11 11 10 8 8 6 5 4 4 4 4 5 5 5 5 5 5 5 5 5 4 4 6 6 5 4 4 3 2
3 9 8 6 5 6 6 5 7 7 9 11 11 12 11 9 8 7 7 6 5 5 4 4 4 3 3 1 3 4 5 5 5 2 3 1 2 3 5 3 4 3 2
10 6 3 8 5 4 3 2 3 4 5 7 10 7 7 9 10 8 7 7 7 6 5 5 4 4 2 1 2 5 6 5 4 4 3 4 5 4 3 4 5 5 5
9 9 5 5 6 6 6 5 3 3 2 2 3 4 6 7 9 9 7 7 7 7 7 6 4 4 3 2 6 8 3 4 4 5 3 2 1 2 2 7 10 8 7
7 8 7 9 5 3 5 6 6 6 5 0 1 2 3 4 6 6 7 5 5 5 4 4 7 5 4 2 2 8 3 1 1 2 4 2 1 1 3 3 4 4 5
4 5 7 6 6 4 4 6 6 7 6 2 3 3 4 8 5 5 7 5 4 5 5 4 6 5 5 3 4 2 3 3 3 3 4 4 3 2 1 2 5 6 7
3 3 4 3 3 7 6 4 5 5 5 6 6 5 4 6 7 6 4 3 3 3 5 4 4 1 3 2 2 4 3 3 2 3 4 4 4 4 4 5 4 5 3
8 6 5 5 8 9 6 5 5 5 2 0 3 4 7 7 7 5 3 4 5 5 5 6 4 2 2 2 4 9 4 4 4 2 2 1 4 6 6 3 2 2 6
10 11 9 9 9 10 8 7 8 5 3 5 5 3 3 5 6 7 6 7 5 7 4 2 4 3 1 4 2 8 5 6 4 4 3 2 7 8 8 6 9 10 6
7 7 8 9 11 11 10 10 9 8 8 9 8 7 8 8 8 4 9 7 5 6 4 2 3 3 3 5 10 8 7 7 4 3 5 9 8 10 9 9 8 6 4
5 5 7 9 9 9 9 8 8 8 9 10 9 9 7 9 9 7 7 6 4 4 4 4 3 2 3 4 4 4 4 8 5 9 4 7 9 11 5 5 5 4 3
4 6 6 6 6 6 7 6 6 6 9 9 7 8 7 8 8 9 7 6 6 4 3 3 2 3 3 3 4 4 3 3 3 4 2 2 3 3 4 4 4 4 4
3 5 4 5 4 6 7 7 6 4 5 7 6 5 6 5 5 6 5 9 8 6 9 9 3 4 8 6 8 8 8 6 3 1 1 1 2 4 3 4 4 4 5
Wind_Direction
193 184 171 172 141 158 167 174 151 158 149 135 131 104 175 176 197 198 219 185 199 165 141 121 117 27 64 14 21 84 50 23 13 112 70 57 48 52 32 13 343 331 328
169 174 173 173 169 167 178 172 174 167 182 142 147 141 169 188 137 150 185 192 186 221 165 142 131 117 103 40 39 56 104 43 9 110 99 39 336 17 26 10 353 345 341
181 179 179 183 166 178 179 183 185 181 188 153 116 101 86 69 91 107 172 178 187 208 182 149 155 134 113 90 53 57 88 125 33 31 128 131 221 300 319 280 322 320 313
186 179 180 181 182 191 166 175 186 185 190 169 158 156 161 165 210 169 188 166 174 186 141 113 158 125 112 98 13 64 86 130 100 59 52 61 128 160 327 284 269 278 285
185 181 190 190 186 172 172 178 178 183 190 181 172 158 164 167 125 137 168 209 193 210 182 158 172 159 124 132 40 45 55 90 120 144 124 81 67 89 104 294 320 298 283
192 196 190 183 179 158 169 169 177 195 191 186 173 173 175 174 166 178 192 234 266 245 220 175 162 187 191 190 228 44 5 62 100 105 145 166 159 164 150 219 286 275 290
186 181 176 182 175 175 178 176 180 197 200 187 183 179 184 180 192 191 191 189 204 239 241 203 177 187 193 209 186 185 235 260 237 164 174 139 165 143 146 159 226 309 315
186 184 186 184 182 184 183 181 185 196 186 198 203 186 177 180 190 202 196 205 208 224 220 248 222 202 191 175 201 230 231 198 221 258 196 166 202 173 168 180 164 358 322
185 186 184 185 184 186 186 191 183 191 189 194 197 201 178 183 198 215 226 224 198 204 222 249 244 229 221 198 190 214 224 233 238 251 254 213 198 213 196 198 191 155 320
181 186 186 182 188 190 189 189 185 194 193 187 190 204 204 197 196 185 218 211 219 220 197 220 245 256 252 220 196 216 216 200 219 218 229 202 223 229 212 203 200 195 185
176 180 187 191 187 188 182 186 185 188 187 190 192 189 202 207 204 206 210 204 190 207 223 215 195 232 236 240 207 214 213 224 235 227 227 250 249 268 263 221 212 191 187
179 178 179 182 184 185 188 186 185 194 198 196 190 196 193 190 208 214 215 189 206 212 216 228 239 207 233 238 217 213 211 210 213 214 216 231 227 249 229 231 229 225 204
154 153 166 185 193 195 191 192 188 205 198 182 193 190 197 195 204 209 204 200 202 204 214 206 233 236 218 226 235 225 238 235 241 232 220 215 196 213 218 226 230 224 208
141 137 170 189 209 205 202 200 205 198 195 187 189 196 197 202 202 204 201 200 208 198 204 227 237 243 241 244 236 229 219 224 216 207 234 230 207 207 206 211 201 195 214
51 166 163 174 193 198 201 221 225 207 200 196 195 207 200 195 193 196 202 196 193 208 197 209 233 223 205 194 277 272 247 240 235 186 200 188 262 243 229 198 203 173 193
10 23 108 121 123 118 108 153 177 184 186 212 220 200 188 187 195 198 203 199 199 186 185 202 201 185 126 307 258 277 272 261 263 250 219 162 154 140 123 204 232 172 179
13 8 9 100 122 130 139 124 108 112 177 196 231 230 206 202 207 206 180 193 189 167 185 156 156 188 154 79 275 260 256 285 255 248 196 199 34 326 108 95 89 71 63
10 2 4 355 357 262 144 139 139 118 111 42 322 212 250 208 229 194 192 165 156 183 176 173 163 194 153 149 27 271 239 199 238 196 162 174 176 328 224 139 98 66 28
9 357 347 345 313 324 267 151 166 149 135 183 282 283 234 220 219 210 155 151 162 179 165 189 178 193 181 109 50 201 131 126 165 169 158 157 141 344 271 229 116 102 78
31 8 348 352 334 317 297 134 198 167 185 158 191 225 217 203 189 164 149 115 126 134 122 116 107 192 175 356 355 206 132 134 124 36 47 43 122 121 173 181 171 144 137
13 9 26 25 10 350 25 80 70 47 8 71 203 204 211 181 149 133 103 109 104 106 110 115 99 67 314 287 230 204 159 162 144 180 175 124 81 87 88 114 146 108 125
18 10 21 23 15 22 33 48 46 12 17 72 50 82 82 107 111 110 95 97 102 94 86 139 152 100 64 2 163 168 155 136 143 157 166 108 81 68 60 78 99 90 94
26 24 27 29 21 22 29 38 19 19 34 50 45 45 58 38 34 88 115 112 114 116 137 145 76 72 30 34 33 69 96 111 109 98 87 99 92 87 72 70 80 99 109
41 50 53 48 32 24 32 32 33 37 56 56 48 35 39 60 41 45 52 57 64 134 143 126 125 132 63 33 29 36 52 53 59 110 89 85 79 70 73 64 44 49 58
51 42 51 60 47 30 36 22 32 56 71 77 67 63 48 54 67 53 32 63 49 8 48 52 86 111 83 73 43 27 69 39 37 84 75 94 86 100 94 85 77 80 92
104 88 68 62 40 57 42 18 10 58 79 68 74 79 78 67 74 86 76 49 62 49 54 63 54 78 76 87 64 43 14 33 29 81 67 64 111 124 119 116 97 77 91